When you browse on this site, cookies collect data to enhance your experience and personalize the content and advertising you see.
Visit our Privacy Policy to learn more. By continuing to use the site, you agree to this use of cookies and data.
  • In Portugal
  • List of Countries
  • For 7 days
  • Water Temperature
  • Satellite Maps
  • Weather Map
  • Weather Widgets
  • user-avatar
    Login

    Hourly Weather Taba

    Today, 22 March, Friday

    Time Temperature Precipitation Wind Pressure Humidity
    00:00 +13°C° 0 mm 3 mps 693 mmHg 62%
    01:00 +13°C° 0 mm 2 mps 693 mmHg 64%
    02:00 +12°C° 0 mm 2 mps 693 mmHg 66%
    03:00 +12°C° 0 mm 2 mps 692 mmHg 64%
    04:00 +12°C° 0 mm 2 mps 692 mmHg 63%
    05:00 +10°C° 0 mm 2 mps 692 mmHg 61%
    06:00 +12°C° 0 mm 2 mps 693 mmHg 55%
    07:00 +13°C° 0 mm 2 mps 693 mmHg 49%
    08:00 +14°C° 0 mm 2 mps 693 mmHg 43%
    09:00 +16°C° 0 mm 2 mps 693 mmHg 36%
    10:00 +18°C° 0 mm 3 mps 693 mmHg 30%
    11:00 +19°C° 0 mm 3 mps 694 mmHg 23%
    12:00 +20°C° 0 mm 3 mps 693 mmHg 21%
    13:00 +21°C° 0 mm 3 mps 693 mmHg 18%
    14:00 +22°C° 0 mm 4 mps 693 mmHg 16%
    15:00 +22°C° 0 mm 4 mps 693 mmHg 16%
    16:00 +21°C° 0 mm 4 mps 693 mmHg 17%
    17:00 +21°C° 0 mm 4 mps 692 mmHg 17%
    18:00 +20°C° 0 mm 4 mps 693 mmHg 20%
    19:00 +19°C° 0 mm 3 mps 693 mmHg 23%
    20:00 +18°C° 0 mm 3 mps 693 mmHg 26%
    21:00 +17°C° 0 mm 2 mps 693 mmHg 30%
    22:00 +16°C° 0 mm 2 mps 693 mmHg 34%
    23:00 +15°C° 0 mm 2 mps 693 mmHg 38%

    Tomorrow, 23 March, Saturday

    Time Temperature Precipitation Wind Pressure Humidity
    00:00 +15°C° 0 mm 2 mps 692 mmHg 41%
    01:00 +14°C° 0 mm 2 mps 692 mmHg 44%
    02:00 +14°C° 0 mm 2 mps 692 mmHg 47%
    03:00 +13°C° 0 mm 1 mps 692 mmHg 48%
    04:00 +13°C° 0 mm 1 mps 691 mmHg 49%
    05:00 +13°C° 0 mm 1 mps 691 mmHg 51%
    06:00 +14°C° 0 mm 1 mps 691 mmHg 46%
    07:00 +15°C° 0 mm 1 mps 691 mmHg 41%
    08:00 +16°C° 0 mm 1 mps 692 mmHg 36%
    09:00 +19°C° 0 mm 1 mps 692 mmHg 30%
    10:00 +20°C° 0 mm 1 mps 692 mmHg 24%
    11:00 +21°C° 0 mm 1 mps 692 mmHg 19%
    12:00 +21°C° 0 mm 2 mps 692 mmHg 18%
    13:00 +21°C° 0 mm 2 mps 691 mmHg 17%
    14:00 +23°C° 0 mm 2 mps 691 mmHg 16%
    15:00 +21°C° 0 mm 2 mps 691 mmHg 17%
    16:00 +21°C° 0 mm 3 mps 690 mmHg 19%
    17:00 +20°C° 0 mm 3 mps 690 mmHg 20%
    18:00 +20°C° 0.1 mm 2 mps 690 mmHg 23%
    19:00 +19°C° 0.1 mm 2 mps 691 mmHg 25%
    20:00 +20°C° 0.1 mm 1 mps 691 mmHg 27%
    21:00 +19°C° 0 mm 1 mps 690 mmHg 28%
    22:00 +18°C° 0 mm 1 mps 690 mmHg 30%
    23:00 +16°C° 0 mm 1 mps 689 mmHg 32%

    Day after tomorrow, 24 March, Sunday

    Time Temperature Precipitation Wind Pressure Humidity
    00:00 +16°C° 0.1 mm 1 mps 688 mmHg 34%
    01:00 +16°C° 0.1 mm 1 mps 688 mmHg 35%
    02:00 +16°C° 0.1 mm 1 mps 687 mmHg 37%
    03:00 +15°C° 0.1 mm 1 mps 687 mmHg 39%
    04:00 +15°C° 0.1 mm 1 mps 687 mmHg 40%
    05:00 +15°C° 0.1 mm 1 mps 686 mmHg 41%
    06:00 +16°C° 0 mm 2 mps 687 mmHg 37%
    07:00 +17°C° 0 mm 2 mps 687 mmHg 34%
    08:00 +18°C° 0 mm 2 mps 687 mmHg 31%
    09:00 +19°C° 0 mm 2 mps 687 mmHg 29%
    10:00 +20°C° 0 mm 2 mps 687 mmHg 27%
    11:00 +21°C° 0 mm 2 mps 687 mmHg 25%
    12:00 +23°C° 0 mm 2 mps 686 mmHg 24%
    13:00 +24°C° 0 mm 3 mps 686 mmHg 23%
    14:00 +25°C° 0 mm 3 mps 686 mmHg 22%
    15:00 +23°C° 0 mm 4 mps 685 mmHg 22%
    16:00 +22°C° 0 mm 6 mps 685 mmHg 22%
    17:00 +21°C° 0 mm 7 mps 685 mmHg 22%
    18:00 +20°C° 0 mm 7 mps 685 mmHg 26%
    19:00 +17°C° 0 mm 6 mps 686 mmHg 30%
    20:00 +16°C° 0 mm 5 mps 686 mmHg 35%
    21:00 +15°C° 0 mm 5 mps 686 mmHg 38%
    22:00 +14°C° 0 mm 4 mps 686 mmHg 41%
    23:00 +13°C° 0 mm 4 mps 686 mmHg 43%

    25 March, Monday

    Time Temperature Precipitation Wind Pressure Humidity
    00:00 +13°C° 0 mm 4 mps 685 mmHg 46%
    01:00 +12°C° 0 mm 3 mps 685 mmHg 49%
    02:00 +11°C° 0 mm 3 mps 685 mmHg 52%
    03:00 +11°C° 0 mm 3 mps 685 mmHg 56%
    04:00 +11°C° 0 mm 3 mps 685 mmHg 60%
    05:00 +10°C° 0 mm 4 mps 685 mmHg 64%
    06:00 +11°C° 0.1 mm 3 mps 685 mmHg 65%
    07:00 +11°C° 0.1 mm 3 mps 685 mmHg 66%
    08:00 +11°C° 0.1 mm 3 mps 686 mmHg 66%
    09:00 +12°C° 0.1 mm 4 mps 686 mmHg 61%
    10:00 +13°C° 0.1 mm 5 mps 686 mmHg 55%
    11:00 +14°C° 0.1 mm 5 mps 687 mmHg 50%
    12:00 +15°C° 0.1 mm 6 mps 686 mmHg 48%
    13:00 +15°C° 0.1 mm 7 mps 686 mmHg 46%
    14:00 +15°C° 0.1 mm 8 mps 686 mmHg 44%
    15:00 +15°C° 0 mm 8 mps 687 mmHg 42%
    16:00 +13°C° 0 mm 8 mps 687 mmHg 40%
    17:00 +13°C° 0 mm 8 mps 687 mmHg 38%
    18:00 +12°C° 0 mm 7 mps 688 mmHg 40%
    19:00 +11°C° 0 mm 6 mps 688 mmHg 41%
    20:00 +10°C° 0 mm 6 mps 689 mmHg 42%
    21:00 +9°C° 0 mm 5 mps 689 mmHg 45%
    22:00 +10°C° 0 mm 3 mps 689 mmHg 47%
    23:00 +9°C° 0 mm 2 mps 689 mmHg 49%

    26 March, Tuesday

    Time Temperature Precipitation Wind Pressure Humidity
    00:00 +9°C° 0 mm 2 mps 689 mmHg 51%
    01:00 +8°C° 0 mm 2 mps 689 mmHg 53%
    02:00 +9°C° 0 mm 1 mps 689 mmHg 55%
    03:00 +9°C° 0 mm 1 mps 689 mmHg 57%
    04:00 +8°C° 0 mm 1 mps 689 mmHg 59%
    05:00 +8°C° 0 mm 1 mps 689 mmHg 61%
    06:00 +9°C° 0 mm 1 mps 689 mmHg 57%
    07:00 +10°C° 0 mm 1 mps 690 mmHg 53%
    08:00 +11°C° 0 mm 1 mps 690 mmHg 49%
    09:00 +12°C° 0 mm 1 mps 690 mmHg 42%
    10:00 +14°C° 0 mm 1 mps 690 mmHg 36%
    11:00 +15°C° 0 mm 1 mps 690 mmHg 30%
    12:00 +16°C° 0 mm 1 mps 690 mmHg 27%
    13:00 +18°C° 0 mm 1 mps 690 mmHg 24%
    14:00 +18°C° 0 mm 2 mps 690 mmHg 22%
    15:00 +18°C° 0 mm 2 mps 690 mmHg 23%
    16:00 +18°C° 0 mm 2 mps 690 mmHg 23%
    17:00 +18°C° 0 mm 2 mps 690 mmHg 24%
    18:00 +17°C° 0 mm 2 mps 691 mmHg 27%
    19:00 +16°C° 0 mm 3 mps 691 mmHg 31%
    20:00 +14°C° 0 mm 3 mps 691 mmHg 35%
    21:00 +15°C° 0 mm 2 mps 691 mmHg 37%
    22:00 +14°C° 0 mm 2 mps 691 mmHg 40%
    23:00 +14°C° 0 mm 2 mps 691 mmHg 42%

    27 March, Wednesday

    Time Temperature Precipitation Wind Pressure Humidity
    00:00 +13°C° 0 mm 2 mps 691 mmHg 46%
    01:00 +12°C° 0 mm 1 mps 691 mmHg 49%
    02:00 +12°C° 0 mm 1 mps 691 mmHg 52%
    03:00 +12°C° 0 mm 1 mps 691 mmHg 54%
    04:00 +11°C° 0 mm 1 mps 691 mmHg 56%
    05:00 +11°C° 0 mm 1 mps 691 mmHg 58%
    06:00 +12°C° 0 mm 1 mps 692 mmHg 54%
    07:00 +13°C° 0 mm 1 mps 693 mmHg 49%
    08:00 +14°C° 0 mm 2 mps 693 mmHg 45%
    09:00 +15°C° 0 mm 2 mps 693 mmHg 40%
    10:00 +16°C° 0 mm 2 mps 693 mmHg 35%
    11:00 +17°C° 0 mm 2 mps 693 mmHg 30%
    12:00 +18°C° 0 mm 3 mps 693 mmHg 27%
    13:00 +19°C° 0 mm 3 mps 693 mmHg 24%
    14:00 +20°C° 0 mm 3 mps 693 mmHg 21%
    15:00 +20°C° 0 mm 4 mps 693 mmHg 21%
    16:00 +19°C° 0 mm 4 mps 693 mmHg 20%
    17:00 +19°C° 0 mm 4 mps 693 mmHg 20%
    18:00 +18°C° 0 mm 4 mps 693 mmHg 23%
    19:00 +18°C° 0 mm 3 mps 693 mmHg 26%
    20:00 +17°C° 0 mm 3 mps 693 mmHg 29%
    21:00 +16°C° 0 mm 3 mps 693 mmHg 30%
    22:00 +16°C° 0 mm 3 mps 693 mmHg 31%
    23:00 +14°C° 0 mm 3 mps 693 mmHg 33%
    Show more